Time,TemperatureF,DewpointF,PressureIn,WindDirection,WindDirectionDegrees,WindSpeedMPH,WindSpeedGustMPH,Humidity,HourlyPrecipIn,Conditions,Clouds,dailyrainin,SoftwareType,DateUTC
2013-05-01 00:01:00,58.7,54.8,30.11,North,0,0.7,1.8,87,0.00,,,0.00,WUHU216HW,2013-05-01 04:01:00,
2013-05-01 00:06:00,58.7,54.8,30.12,North,0,0.7,1.8,87,0.00,,,0.00,WUHU216HW,2013-05-01 04:06:00,
2013-05-01 00:11:00,58.7,54.8,30.12,NW,315,3.4,3.4,87,0.00,,,0.00,WUHU216HW,2013-05-01 04:11:00,
2013-05-01 00:16:00,58.7,54.8,30.12,NE,45,0.4,3.4,87,0.00,,,0.00,WUHU216HW,2013-05-01 04:16:00,
2013-05-01 00:21:00,58.9,55.0,30.12,NNE,23,0.4,1.8,87,0.00,,,0.00,WUHU216HW,2013-05-01 04:21:00,
2013-05-01 00:26:00,58.9,55.0,30.12,NNW,338,1.1,1.8,87,0.00,,,0.00,WUHU216HW,2013-05-01 04:26:00,
2013-05-01 00:31:00,58.9,55.0,30.12,North,0,0.2,1.8,87,0.00,,,0.00,WUHU216HW,2013-05-01 04:31:00,
2013-05-01 00:36:00,58.9,55.0,30.12,NNE,23,0.4,1.1,87,0.00,,,0.00,WUHU216HW,2013-05-01 04:36:00,
2013-05-01 00:41:00,58.9,55.0,30.12,North,0,0.2,1.3,87,0.00,,,0.00,WUHU216HW,2013-05-01 04:41:00,
2013-05-01 00:46:00,58.9,55.0,30.12,NNE,23,0.2,1.3,87,0.00,,,0.00,WUHU216HW,2013-05-01 04:46:00,
2013-05-01 00:51:00,58.9,55.0,30.12,NNE,23,0.2,0.9,87,0.00,,,0.00,WUHU216HW,2013-05-01 04:51:00,
2013-05-01 00:56:00,58.9,55.0,30.12,North,0,0.4,1.6,87,0.00,,,0.00,WUHU216HW,2013-05-01 04:56:00,
2013-05-01 01:01:00,58.9,55.0,30.13,North,0,1.1,1.6,87,0.00,,,0.00,WUHU216HW,2013-05-01 05:01:00,
2013-05-01 01:06:00,58.9,55.0,30.13,North,0,0.4,1.1,87,0.00,,,0.00,WUHU216HW,2013-05-01 05:06:00,
2013-05-01 01:11:00,58.9,55.0,30.12,North,0,1.8,2.7,87,0.00,,,0.00,WUHU216HW,2013-05-01 05:11:00,
2013-05-01 01:16:00,58.9,55.0,30.12,North,0,1.1,2.7,87,0.00,,,0.00,WUHU216HW,2013-05-01 05:16:00,
2013-05-01 01:21:00,58.9,55.0,30.12,North,0,1.3,2.0,87,0.00,,,0.00,WUHU216HW,2013-05-01 05:21:00,
2013-05-01 01:26:00,58.9,55.0,30.12,NNE,23,1.3,2.0,87,0.00,,,0.00,WUHU216HW,2013-05-01 05:26:00,
2013-05-01 01:31:00,58.9,55.0,30.12,NNW,338,2.0,2.0,87,0.00,,,0.00,WUHU216HW,2013-05-01 05:31:00,
2013-05-01 01:36:00,58.9,55.0,30.12,North,0,2.5,2.5,87,0.00,,,0.00,WUHU216HW,2013-05-01 05:36:00,
2013-05-01 01:41:00,58.9,55.0,30.12,North,0,0.4,2.5,87,0.00,,,0.00,WUHU216HW,2013-05-01 05:41:00,
2013-05-01 01:46:00,58.9,55.0,30.12,NE,45,1.1,2.5,87,0.00,,,0.00,WUHU216HW,2013-05-01 05:46:00,
2013-05-01 01:51:00,58.9,55.0,30.11,North,0,0.4,1.8,87,0.00,,,0.00,WUHU216HW,2013-05-01 05:51:00,
2013-05-01 01:56:00,58.7,54.8,30.11,NNW,338,2.9,2.9,87,0.00,,,0.00,WUHU216HW,2013-05-01 05:56:00,
2013-05-01 02:01:00,58.7,54.8,30.11,ENE,68,1.6,2.9,87,0.00,,,0.00,WUHU216HW,2013-05-01 06:01:00,
2013-05-01 02:06:00,58.7,54.8,30.11,NE,45,0.4,2.9,87,0.00,,,0.00,WUHU216HW,2013-05-01 06:06:00,
2013-05-01 02:11:00,58.7,54.8,30.11,ENE,68,0.7,1.6,87,0.00,,,0.00,WUHU216HW,2013-05-01 06:11:00,
2013-05-01 02:16:00,58.7,54.8,30.11,NE,45,1.6,3.4,87,0.00,,,0.00,WUHU216HW,2013-05-01 06:16:00,
2013-05-01 02:21:00,58.7,54.8,30.11,ENE,68,0.7,3.4,87,0.00,,,0.00,WUHU216HW,2013-05-01 06:21:00,
2013-05-01 02:26:00,58.7,54.8,30.11,NNE,23,1.1,1.8,87,0.00,,,0.00,WUHU216HW,2013-05-01 06:26:00,
2013-05-01 02:31:00,58.7,54.8,30.11,ENE,68,1.1,1.6,87,0.00,,,0.00,WUHU216HW,2013-05-01 06:31:00,
2013-05-01 02:36:00,58.7,54.8,30.11,NE,45,0.9,2.5,87,0.00,,,0.00,WUHU216HW,2013-05-01 06:36:00,
2013-05-01 02:41:00,58.7,54.8,30.11,WNW,293,0.2,2.5,87,0.00,,,0.00,WUHU216HW,2013-05-01 06:41:00,
2013-05-01 02:46:00,58.7,54.8,30.11,NNE,23,0.4,2.0,87,0.00,,,0.00,WUHU216HW,2013-05-01 06:46:00,
2013-05-01 02:51:00,58.7,54.8,30.11,North,0,2.0,2.7,87,0.00,,,0.00,WUHU216HW,2013-05-01 06:51:00,
2013-05-01 02:56:00,58.7,54.8,30.11,ENE,68,0.7,2.7,87,0.00,,,0.00,WUHU216HW,2013-05-01 06:56:00,
2013-05-01 03:01:00,58.7,54.8,30.10,North,0,0.4,2.5,87,0.00,,,0.00,WUHU216HW,2013-05-01 07:01:00,
2013-05-01 03:06:00,58.5,54.6,30.10,ESE,113,0.4,2.5,87,0.00,,,0.00,WUHU216HW,2013-05-01 07:06:00,
2013-05-01 03:11:00,58.5,54.6,30.10,NNE,23,0.7,2.5,87,0.00,,,0.00,WUHU216HW,2013-05-01 07:11:00,
2013-05-01 03:16:00,58.5,54.6,30.11,North,0,0.2,3.4,87,0.00,,,0.00,WUHU216HW,2013-05-01 07:16:00,
2013-05-01 03:21:00,58.5,54.6,30.11,North,0,2.2,3.4,87,0.00,,,0.00,WUHU216HW,2013-05-01 07:21:00,
2013-05-01 03:26:00,58.5,54.6,30.11,North,0,0.7,2.2,87,0.00,,,0.00,WUHU216HW,2013-05-01 07:26:00,
2013-05-01 03:31:00,58.5,55.0,30.11,North,0,0.4,2.2,88,0.00,,,0.00,WUHU216HW,2013-05-01 07:31:00,
2013-05-01 03:36:00,58.5,55.0,30.11,ESE,113,0.4,2.5,88,0.00,,,0.00,WUHU216HW,2013-05-01 07:36:00,
2013-05-01 03:41:00,58.5,55.0,30.11,NE,45,0.0,2.5,88,0.00,,,0.00,WUHU216HW,2013-05-01 07:41:00,
2013-05-01 03:46:00,58.5,55.0,30.11,North,0,2.0,2.0,88,0.00,,,0.00,WUHU216HW,2013-05-01 07:46:00,
2013-05-01 03:51:00,58.5,55.0,30.11,NNW,338,0.4,2.2,88,0.00,,,0.00,WUHU216HW,2013-05-01 07:51:00,
2013-05-01 03:56:00,58.3,54.8,30.11,North,0,1.1,2.2,88,0.00,,,0.00,WUHU216HW,2013-05-01 07:56:00,
2013-05-01 04:01:00,58.5,55.0,30.11,North,0,0.9,2.0,88,0.00,,,0.00,WUHU216HW,2013-05-01 08:01:00,
2013-05-01 04:06:00,58.5,55.0,30.11,NNW,338,1.1,2.0,88,0.00,,,0.00,WUHU216HW,2013-05-01 08:06:00,
2013-05-01 04:11:00,58.5,55.0,30.11,North,0,0.4,1.6,88,0.00,,,0.00,WUHU216HW,2013-05-01 08:11:00,
2013-05-01 04:16:00,58.3,54.8,30.11,North,0,0.7,1.6,88,0.00,,,0.00,WUHU216HW,2013-05-01 08:16:00,
2013-05-01 04:21:00,58.3,54.8,30.11,NE,45,0.4,3.1,88,0.00,,,0.00,WUHU216HW,2013-05-01 08:21:00,
2013-05-01 04:26:00,58.3,54.8,30.11,NE,45,1.3,4.0,88,0.00,,,0.00,WUHU216HW,2013-05-01 08:26:00,
2013-05-01 04:31:00,58.3,54.8,30.11,NNE,23,0.4,4.0,88,0.00,,,0.00,WUHU216HW,2013-05-01 08:31:00,
2013-05-01 04:36:00,58.3,55.1,30.11,North,0,0.7,1.8,89,0.00,,,0.00,WUHU216HW,2013-05-01 08:36:00,
2013-05-01 04:41:00,58.5,55.3,30.11,NNE,23,0.9,2.5,89,0.00,,,0.00,WUHU216HW,2013-05-01 08:41:00,
2013-05-01 04:46:00,58.3,54.8,30.11,North,0,0.7,2.5,88,0.00,,,0.00,WUHU216HW,2013-05-01 08:46:00,
2013-05-01 04:51:00,58.5,55.3,30.10,NNW,338,2.7,2.7,89,0.00,,,0.00,WUHU216HW,2013-05-01 08:51:00,
2013-05-01 04:56:00,58.3,55.1,30.10,NNE,23,0.4,4.0,89,0.00,,,0.00,WUHU216HW,2013-05-01 08:56:00,
2013-05-01 05:01:00,58.3,55.1,30.10,North,0,0.4,4.0,89,0.00,,,0.00,WUHU216HW,2013-05-01 09:01:00,
2013-05-01 05:06:00,58.3,55.1,30.10,ENE,68,1.1,1.8,89,0.00,,,0.00,WUHU216HW,2013-05-01 09:06:00,
2013-05-01 05:11:00,58.3,55.1,30.10,North,0,0.2,1.8,89,0.00,,,0.00,WUHU216HW,2013-05-01 09:11:00,
2013-05-01 05:16:00,58.3,55.1,30.11,East,90,1.8,2.0,89,0.00,,,0.00,WUHU216HW,2013-05-01 09:16:00,
2013-05-01 05:21:00,58.3,55.1,30.11,North,0,0.4,2.5,89,0.00,,,0.00,WUHU216HW,2013-05-01 09:21:00,
2013-05-01 05:26:00,58.3,55.1,30.11,North,0,2.0,2.5,89,0.00,,,0.00,WUHU216HW,2013-05-01 09:26:00,
2013-05-01 05:31:00,58.3,55.1,30.11,ENE,68,1.3,2.2,89,0.00,,,0.00,WUHU216HW,2013-05-01 09:31:00,
2013-05-01 05:36:00,58.3,55.1,30.11,ENE,68,0.4,2.5,89,0.00,,,0.00,WUHU216HW,2013-05-01 09:36:00,
2013-05-01 05:41:00,58.3,55.1,30.12,NE,45,1.1,2.5,89,0.00,,,0.00,WUHU216HW,2013-05-01 09:41:00,
2013-05-01 05:46:00,58.3,55.1,30.12,NNE,23,0.9,2.2,89,0.00,,,0.00,WUHU216HW,2013-05-01 09:46:00,
2013-05-01 05:51:00,58.3,55.1,30.12,North,0,0.7,1.8,89,0.00,,,0.00,WUHU216HW,2013-05-01 09:51:00,
2013-05-01 05:56:00,58.3,55.1,30.12,NE,45,0.4,1.8,89,0.00,,,0.00,WUHU216HW,2013-05-01 09:56:00,
2013-05-01 06:01:00,58.3,55.1,30.12,ENE,68,0.7,1.3,89,0.00,,,0.00,WUHU216HW,2013-05-01 10:01:00,
2013-05-01 06:06:00,58.3,55.1,30.12,North,0,0.4,1.1,89,0.00,,,0.00,WUHU216HW,2013-05-01 10:06:00,
2013-05-01 06:11:00,58.3,55.1,30.12,NNE,23,0.0,1.3,89,0.00,,,0.00,WUHU216HW,2013-05-01 10:11:00,
2013-05-01 06:16:00,58.3,55.1,30.13,NE,45,0.9,1.3,89,0.00,,,0.00,WUHU216HW,2013-05-01 10:16:00,
2013-05-01 06:21:00,58.3,55.1,30.13,ESE,113,0.4,1.6,89,0.00,,,0.00,WUHU216HW,2013-05-01 10:21:00,
2013-05-01 06:26:00,58.3,55.1,30.13,NE,45,0.9,1.6,89,0.00,,,0.00,WUHU216HW,2013-05-01 10:26:00,
2013-05-01 06:31:00,58.5,55.3,30.13,NE,45,0.9,2.2,89,0.00,,,0.00,WUHU216HW,2013-05-01 10:31:00,
2013-05-01 06:36:00,58.5,55.3,30.13,NNE,23,2.2,2.2,89,0.00,,,0.00,WUHU216HW,2013-05-01 10:36:00,
2013-05-01 06:41:00,58.3,55.1,30.14,NNW,338,1.3,2.2,89,0.00,,,0.00,WUHU216HW,2013-05-01 10:41:00,
2013-05-01 06:46:00,58.5,55.3,30.14,NNE,23,1.1,2.2,89,0.00,,,0.00,WUHU216HW,2013-05-01 10:46:00,
2013-05-01 06:51:00,58.5,55.3,30.14,East,90,1.1,1.8,89,0.00,,,0.00,WUHU216HW,2013-05-01 10:51:00,
2013-05-01 06:56:00,58.5,55.6,30.15,ENE,68,1.1,2.5,90,0.00,,,0.00,WUHU216HW,2013-05-01 10:56:00,
2013-05-01 07:01:00,58.5,55.6,30.15,North,0,1.1,2.5,90,0.00,,,0.00,WUHU216HW,2013-05-01 11:01:00,
2013-05-01 07:06:00,58.3,55.4,30.15,North,0,1.3,2.0,90,0.00,,,0.00,WUHU216HW,2013-05-01 11:06:00,
2013-05-01 07:11:00,58.3,55.4,30.15,North,0,0.2,1.6,90,0.00,,,0.00,WUHU216HW,2013-05-01 11:11:00,
2013-05-01 07:16:00,58.3,55.4,30.15,East,90,0.2,1.3,90,0.00,,,0.00,WUHU216HW,2013-05-01 11:16:00,
2013-05-01 07:21:00,58.3,55.4,30.15,East,90,0.2,1.8,90,0.00,,,0.00,WUHU216HW,2013-05-01 11:21:00,
2013-05-01 07:26:00,58.3,55.4,30.15,NNE,23,0.4,1.8,90,0.00,,,0.00,WUHU216HW,2013-05-01 11:26:00,
2013-05-01 07:31:00,58.3,55.4,30.16,NE,45,0.9,1.6,90,0.00,,,0.00,WUHU216HW,2013-05-01 11:31:00,
2013-05-01 07:36:00,58.3,55.7,30.16,North,0,0.9,1.8,91,0.00,,,0.00,WUHU216HW,2013-05-01 11:36:00,
2013-05-01 07:41:00,58.3,55.4,30.16,NNE,23,0.4,1.8,90,0.00,,,0.00,WUHU216HW,2013-05-01 11:41:00,
2013-05-01 07:46:00,58.3,55.4,30.16,ENE,68,0.7,1.8,90,0.00,,,0.00,WUHU216HW,2013-05-01 11:46:00,
2013-05-01 07:51:00,58.3,55.4,30.16,NNW,338,1.3,1.8,90,0.00,,,0.00,WUHU216HW,2013-05-01 11:51:00,
2013-05-01 07:56:00,58.3,55.7,30.16,NNE,23,0.4,3.1,91,0.00,,,0.00,WUHU216HW,2013-05-01 11:56:00,
2013-05-01 08:01:00,58.3,55.7,30.16,North,0,1.1,3.1,91,0.00,,,0.00,WUHU216HW,2013-05-01 12:01:00,
2013-05-01 08:06:00,58.3,55.7,30.16,NNW,338,1.6,3.1,91,0.00,,,0.00,WUHU216HW,2013-05-01 12:06:00,
2013-05-01 08:11:00,58.3,55.7,30.16,North,0,0.4,3.1,91,0.00,,,0.00,WUHU216HW,2013-05-01 12:11:00,
2013-05-01 08:16:00,58.3,55.7,30.16,NNW,338,0.4,1.8,91,0.00,,,0.00,WUHU216HW,2013-05-01 12:16:00,
2013-05-01 08:21:00,58.5,55.9,30.16,NNW,338,0.7,1.8,91,0.00,,,0.00,WUHU216HW,2013-05-01 12:21:00,
2013-05-01 08:26:00,58.3,55.7,30.16,NNE,23,0.7,1.6,91,0.00,,,0.00,WUHU216HW,2013-05-01 12:26:00,
2013-05-01 08:31:00,58.3,55.7,30.17,NNE,23,2.5,2.5,91,0.00,,,0.00,WUHU216HW,2013-05-01 12:31:00,
2013-05-01 08:36:00,58.3,55.7,30.17,NNE,23,0.0,2.5,91,0.00,,,0.00,WUHU216HW,2013-05-01 12:36:00,
2013-05-01 08:41:00,58.3,55.7,30.18,ESE,113,1.1,2.5,91,0.00,,,0.00,WUHU216HW,2013-05-01 12:41:00,
2013-05-01 08:46:00,58.5,55.9,30.18,North,0,2.5,2.5,91,0.00,,,0.00,WUHU216HW,2013-05-01 12:46:00,
2013-05-01 08:51:00,58.3,55.4,30.18,NNW,338,1.1,4.3,90,0.00,,,0.00,WUHU216HW,2013-05-01 12:51:00,
2013-05-01 08:56:00,58.3,55.7,30.18,North,0,0.7,4.3,91,0.00,,,0.00,WUHU216HW,2013-05-01 12:56:00,
2013-05-01 09:01:00,58.3,55.7,30.18,NNE,23,0.7,2.9,91,0.00,,,0.00,WUHU216HW,2013-05-01 13:01:00,
2013-05-01 09:06:00,58.3,55.4,30.18,North,0,1.1,1.8,90,0.00,,,0.00,WUHU216HW,2013-05-01 13:06:00,
2013-05-01 09:11:00,58.3,55.4,30.18,North,0,0.9,2.5,90,0.00,,,0.00,WUHU216HW,2013-05-01 13:11:00,
2013-05-01 09:16:00,58.3,55.7,30.18,NNE,23,0.4,2.5,91,0.00,,,0.00,WUHU216HW,2013-05-01 13:16:00,
2013-05-01 09:21:00,58.3,55.7,30.18,ENE,68,1.3,2.2,91,0.00,,,0.00,WUHU216HW,2013-05-01 13:21:00,
2013-05-01 09:26:00,58.3,55.4,30.18,NNE,23,0.9,3.4,90,0.00,,,0.00,WUHU216HW,2013-05-01 13:26:00,
2013-05-01 09:31:00,58.1,55.3,30.19,NNE,23,1.8,3.4,90,0.00,,,0.00,WUHU216HW,2013-05-01 13:31:00,
2013-05-01 09:36:00,58.1,55.3,30.19,NNW,338,1.6,2.0,90,0.00,,,0.00,WUHU216HW,2013-05-01 13:36:00,
2013-05-01 09:41:00,58.1,55.5,30.19,ENE,68,1.6,2.0,91,0.00,,,0.00,WUHU216HW,2013-05-01 13:41:00,
2013-05-01 09:46:00,58.1,55.3,30.19,ENE,68,1.3,2.7,90,0.00,,,0.00,WUHU216HW,2013-05-01 13:46:00,
2013-05-01 09:51:00,58.0,55.1,30.19,NNE,23,0.9,4.3,90,0.00,,,0.00,WUHU216HW,2013-05-01 13:51:00,
2013-05-01 09:56:00,58.0,55.1,30.19,NE,45,0.4,4.3,90,0.00,,,0.00,WUHU216HW,2013-05-01 13:56:00,
2013-05-01 10:01:00,58.1,55.3,30.19,East,90,1.1,2.7,90,0.00,,,0.00,WUHU216HW,2013-05-01 14:01:00,
2013-05-01 10:06:00,58.3,55.4,30.19,North,0,0.4,1.8,90,0.00,,,0.00,WUHU216HW,2013-05-01 14:06:00,
2013-05-01 10:11:00,58.3,55.4,30.20,ENE,68,1.3,2.5,90,0.00,,,0.00,WUHU216HW,2013-05-01 14:11:00,
2013-05-01 10:16:00,58.3,55.4,30.20,North,0,1.8,2.5,90,0.00,,,0.00,WUHU216HW,2013-05-01 14:16:00,
2013-05-01 10:21:00,58.3,55.4,30.20,NNE,23,1.1,2.9,90,0.00,,,0.00,WUHU216HW,2013-05-01 14:21:00,
2013-05-01 10:26:00,58.5,55.6,30.20,ENE,68,0.4,2.9,90,0.00,,,0.00,WUHU216HW,2013-05-01 14:26:00,
2013-05-01 10:31:00,58.5,55.6,30.20,NNE,23,1.6,2.5,90,0.00,,,0.00,WUHU216HW,2013-05-01 14:31:00,
2013-05-01 10:36:00,58.5,55.6,30.20,NE,45,1.8,2.5,90,0.00,,,0.00,WUHU216HW,2013-05-01 14:36:00,
2013-05-01 10:41:00,58.5,55.6,30.21,NNE,23,0.9,2.5,90,0.00,,,0.00,WUHU216HW,2013-05-01 14:41:00,
2013-05-01 10:46:00,58.5,55.6,30.20,ESE,113,1.8,2.5,90,0.00,,,0.00,WUHU216HW,2013-05-01 14:46:00,
2013-05-01 10:51:00,58.5,55.6,30.20,North,0,2.7,2.7,90,0.00,,,0.00,WUHU216HW,2013-05-01 14:51:00,
2013-05-01 10:56:00,58.7,55.8,30.20,NE,45,1.6,3.1,90,0.00,,,0.00,WUHU216HW,2013-05-01 14:56:00,
2013-05-01 11:01:00,58.9,56.0,30.20,ENE,68,0.9,3.1,90,0.00,,,0.00,WUHU216HW,2013-05-01 15:01:00,
2013-05-01 11:06:00,58.9,55.6,30.20,ENE,68,1.1,2.7,89,0.00,,,0.00,WUHU216HW,2013-05-01 15:06:00,
2013-05-01 11:11:00,59.0,55.8,30.21,ENE,68,2.7,3.8,89,0.00,,,0.00,WUHU216HW,2013-05-01 15:11:00,
2013-05-01 11:16:00,59.0,55.8,30.20,ENE,68,0.4,3.8,89,0.00,,,0.00,WUHU216HW,2013-05-01 15:16:00,
2013-05-01 11:21:00,59.2,56.0,30.20,North,0,0.7,2.7,89,0.00,,,0.00,WUHU216HW,2013-05-01 15:21:00,
2013-05-01 11:26:00,59.4,55.9,30.20,ENE,68,2.5,2.7,88,0.00,,,0.00,WUHU216HW,2013-05-01 15:26:00,
2013-05-01 11:31:00,59.4,55.9,30.20,ENE,68,1.1,3.4,88,0.00,,,0.00,WUHU216HW,2013-05-01 15:31:00,
2013-05-01 11:36:00,59.4,55.9,30.21,NNE,23,1.1,3.4,88,0.00,,,0.00,WUHU216HW,2013-05-01 15:36:00,
2013-05-01 11:41:00,59.2,55.7,30.20,North,0,2.0,2.2,88,0.00,,,0.00,WUHU216HW,2013-05-01 15:41:00,
2013-05-01 11:46:00,59.4,55.5,30.20,NNE,23,2.0,3.4,87,0.00,,,0.00,WUHU216HW,2013-05-01 15:46:00,
2013-05-01 11:51:00,59.4,55.5,30.20,NE,45,1.8,4.3,87,0.00,,,0.00,WUHU216HW,2013-05-01 15:51:00,
2013-05-01 11:56:00,59.6,55.7,30.20,NNE,23,1.1,4.3,87,0.00,,,0.00,WUHU216HW,2013-05-01 15:56:00,
2013-05-01 12:01:00,59.8,55.9,30.20,NNE,23,1.3,2.5,87,0.00,,,0.00,WUHU216HW,2013-05-01 16:01:00,
2013-05-01 12:06:00,59.8,55.9,30.21,ENE,68,1.6,2.5,87,0.00,,,0.00,WUHU216HW,2013-05-01 16:06:00,
2013-05-01 12:11:00,59.8,55.9,30.21,ENE,68,0.4,6.5,87,0.00,,,0.00,WUHU216HW,2013-05-01 16:11:00,
2013-05-01 12:16:00,59.9,56.1,30.21,SE,135,1.1,6.5,87,0.00,,,0.00,WUHU216HW,2013-05-01 16:16:00,
2013-05-01 12:21:00,59.9,55.8,30.21,NE,45,1.8,2.9,86,0.00,,,0.00,WUHU216HW,2013-05-01 16:21:00,
2013-05-01 12:26:00,59.9,56.1,30.21,East,90,0.7,3.4,87,0.00,,,0.00,WUHU216HW,2013-05-01 16:26:00,
2013-05-01 12:31:00,60.1,56.3,30.21,NE,45,0.7,3.4,87,0.00,,,0.00,WUHU216HW,2013-05-01 16:31:00,
2013-05-01 12:36:00,60.1,56.3,30.21,NNW,338,1.3,2.2,87,0.00,,,0.00,WUHU216HW,2013-05-01 16:36:00,
2013-05-01 12:41:00,60.1,56.3,30.21,ENE,68,0.9,2.9,87,0.00,,,0.00,WUHU216HW,2013-05-01 16:41:00,
2013-05-01 12:46:00,60.3,56.4,30.21,NE,45,1.3,2.9,87,0.00,,,0.00,WUHU216HW,2013-05-01 16:46:00,
2013-05-01 12:51:00,60.5,56.6,30.21,East,90,1.8,2.5,87,0.00,,,0.00,WUHU216HW,2013-05-01 16:51:00,
2013-05-01 12:56:00,60.5,56.4,30.21,NE,45,1.8,2.7,86,0.00,,,0.00,WUHU216HW,2013-05-01 16:56:00,
2013-05-01 13:01:00,60.5,56.4,30.21,NE,45,0.4,3.1,86,0.00,,,0.00,WUHU216HW,2013-05-01 17:01:00,
2013-05-01 13:06:00,60.5,56.4,30.21,ESE,113,1.1,3.1,86,0.00,,,0.00,WUHU216HW,2013-05-01 17:06:00,
2013-05-01 13:11:00,60.5,56.6,30.21,NNW,338,1.3,2.5,87,0.00,,,0.00,WUHU216HW,2013-05-01 17:11:00,
2013-05-01 13:16:00,60.5,56.6,30.21,ENE,68,0.4,2.5,87,0.00,,,0.00,WUHU216HW,2013-05-01 17:16:00,
2013-05-01 13:21:00,60.5,56.6,30.21,NNE,23,1.8,3.4,87,0.00,,,0.00,WUHU216HW,2013-05-01 17:21:00,
2013-05-01 13:26:00,60.5,56.4,30.21,NNE,23,2.0,3.4,86,0.00,,,0.00,WUHU216HW,2013-05-01 17:26:00,
2013-05-01 13:31:00,60.5,56.4,30.21,North,0,1.8,3.1,86,0.00,,,0.00,WUHU216HW,2013-05-01 17:31:00,
2013-05-01 13:36:00,60.5,56.4,30.21,ENE,68,2.5,3.1,86,0.00,,,0.00,WUHU216HW,2013-05-01 17:36:00,
2013-05-01 13:41:00,60.5,56.4,30.22,NNE,23,1.8,3.1,86,0.00,,,0.00,WUHU216HW,2013-05-01 17:41:00,
2013-05-01 13:46:00,60.5,56.4,30.22,ENE,68,0.9,3.1,86,0.00,,,0.00,WUHU216HW,2013-05-01 17:46:00,
2013-05-01 13:51:00,60.5,56.6,30.22,NE,45,1.3,1.8,87,0.00,,,0.00,WUHU216HW,2013-05-01 17:51:00,
2013-05-01 13:56:00,60.5,56.6,30.22,ENE,68,2.0,2.2,87,0.00,,,0.00,WUHU216HW,2013-05-01 17:56:00,
2013-05-01 14:01:00,60.5,56.6,30.21,NE,45,1.8,3.4,87,0.00,,,0.00,WUHU216HW,2013-05-01 18:01:00,
2013-05-01 14:06:00,60.7,56.8,30.21,ENE,68,2.0,3.4,87,0.00,,,0.00,WUHU216HW,2013-05-01 18:06:00,
2013-05-01 14:11:00,60.7,56.8,30.21,East,90,0.2,2.5,87,0.00,,,0.00,WUHU216HW,2013-05-01 18:11:00,
2013-05-01 14:16:00,60.7,56.8,30.21,ENE,68,2.0,2.0,87,0.00,,,0.00,WUHU216HW,2013-05-01 18:16:00,
2013-05-01 14:21:00,60.7,57.2,30.21,NNW,338,0.7,2.0,88,0.00,,,0.00,WUHU216HW,2013-05-01 18:21:00,
2013-05-01 14:26:00,60.7,57.2,30.20,ENE,68,1.1,1.8,88,0.00,,,0.00,WUHU216HW,2013-05-01 18:26:00,
2013-05-01 14:31:00,60.7,57.2,30.21,NE,45,0.0,1.8,88,0.00,,,0.00,WUHU216HW,2013-05-01 18:31:00,
2013-05-01 14:36:00,60.7,57.4,30.20,NNE,23,1.1,2.5,89,0.00,,,0.00,WUHU216HW,2013-05-01 18:36:00,
2013-05-01 14:41:00,60.8,57.6,30.20,NE,45,2.2,2.5,89,0.00,,,0.00,WUHU216HW,2013-05-01 18:41:00,
2013-05-01 14:46:00,60.8,57.6,30.20,SSE,158,0.9,2.2,89,0.00,,,0.00,WUHU216HW,2013-05-01 18:46:00,
2013-05-01 14:51:00,60.8,57.6,30.20,NNE,23,1.3,2.2,89,0.00,,,0.00,WUHU216HW,2013-05-01 18:51:00,
2013-05-01 14:56:00,60.8,57.3,30.20,ENE,68,2.0,4.0,88,0.00,,,0.00,WUHU216HW,2013-05-01 18:56:00,
2013-05-01 15:01:00,60.8,57.3,30.20,NNE,23,0.9,4.0,88,0.00,,,0.00,WUHU216HW,2013-05-01 19:01:00,
2013-05-01 15:06:00,60.8,57.3,30.20,ENE,68,2.9,3.8,88,0.00,,,0.00,WUHU216HW,2013-05-01 19:06:00,
2013-05-01 15:11:00,61.0,57.2,30.20,ENE,68,2.2,3.8,87,0.00,,,0.00,WUHU216HW,2013-05-01 19:11:00,
2013-05-01 15:16:00,61.2,57.3,30.20,NE,45,0.4,2.9,87,0.00,,,0.00,WUHU216HW,2013-05-01 19:16:00,
2013-05-01 15:21:00,61.4,57.5,30.19,North,0,0.7,3.1,87,0.00,,,0.00,WUHU216HW,2013-05-01 19:21:00,
2013-05-01 15:26:00,61.4,57.5,30.20,ESE,113,1.1,3.1,87,0.00,,,0.00,WUHU216HW,2013-05-01 19:26:00,
2013-05-01 15:31:00,61.2,56.7,30.20,ENE,68,1.1,3.8,85,0.00,,,0.00,WUHU216HW,2013-05-01 19:31:00,
2013-05-01 15:36:00,61.2,57.0,30.19,NNE,23,1.3,3.8,86,0.00,,,0.00,WUHU216HW,2013-05-01 19:36:00,
2013-05-01 15:41:00,61.2,56.7,30.19,North,0,3.1,4.0,85,0.00,,,0.00,WUHU216HW,2013-05-01 19:41:00,
2013-05-01 15:46:00,61.2,56.3,30.19,NE,45,1.1,4.7,84,0.00,,,0.00,WUHU216HW,2013-05-01 19:46:00,
2013-05-01 15:51:00,61.4,56.9,30.19,NE,45,2.0,4.7,85,0.00,,,0.00,WUHU216HW,2013-05-01 19:51:00,
2013-05-01 15:56:00,61.6,56.7,30.19,East,90,1.3,4.3,84,0.00,,,0.00,WUHU216HW,2013-05-01 19:56:00,
2013-05-01 16:01:00,61.4,56.5,30.20,ENE,68,2.5,4.3,84,0.00,,,0.00,WUHU216HW,2013-05-01 20:01:00,
2013-05-01 16:06:00,61.4,56.5,30.20,ENE,68,2.0,3.1,84,0.00,,,0.00,WUHU216HW,2013-05-01 20:06:00,
2013-05-01 16:11:00,61.4,56.5,30.20,East,90,2.0,4.0,84,0.00,,,0.00,WUHU216HW,2013-05-01 20:11:00,
2013-05-01 16:16:00,61.2,56.1,30.20,North,0,3.4,4.0,83,0.00,,,0.00,WUHU216HW,2013-05-01 20:16:00,
2013-05-01 16:21:00,61.2,56.3,30.20,North,0,1.1,3.8,84,0.00,,,0.00,WUHU216HW,2013-05-01 20:21:00,
2013-05-01 16:26:00,60.8,56.3,30.21,NE,45,1.8,3.8,85,0.00,,,0.00,WUHU216HW,2013-05-01 20:26:00,
2013-05-01 16:31:00,60.8,56.3,30.21,NNE,23,1.6,3.4,85,0.00,,,0.00,WUHU216HW,2013-05-01 20:31:00,
2013-05-01 16:36:00,60.7,56.2,30.21,ENE,68,1.3,3.4,85,0.00,,,0.00,WUHU216HW,2013-05-01 20:36:00,
2013-05-01 16:41:00,60.7,56.2,30.21,NE,45,1.6,2.9,85,0.00,,,0.00,WUHU216HW,2013-05-01 20:41:00,
2013-05-01 16:46:00,60.5,56.4,30.21,ENE,68,1.6,2.2,86,0.00,,,0.00,WUHU216HW,2013-05-01 20:46:00,
2013-05-01 16:51:00,60.1,56.0,30.21,NE,45,1.3,3.4,86,0.00,,,0.00,WUHU216HW,2013-05-01 20:51:00,
2013-05-01 16:56:00,60.1,56.0,30.21,SE,135,1.6,3.4,86,0.00,,,0.00,WUHU216HW,2013-05-01 20:56:00,
2013-05-01 17:01:00,59.9,56.1,30.21,East,90,2.0,3.8,87,0.00,,,0.00,WUHU216HW,2013-05-01 21:01:00,
2013-05-01 17:06:00,59.9,56.1,30.21,NNE,23,1.3,3.8,87,0.00,,,0.00,WUHU216HW,2013-05-01 21:06:00,
2013-05-01 17:11:00,59.8,55.9,30.21,ENE,68,2.7,3.1,87,0.00,,,0.00,WUHU216HW,2013-05-01 21:11:00,
2013-05-01 17:16:00,59.8,55.9,30.22,ENE,68,2.5,3.1,87,0.00,,,0.00,WUHU216HW,2013-05-01 21:16:00,
2013-05-01 17:21:00,59.6,55.7,30.22,ENE,68,0.2,2.7,87,0.00,,,0.00,WUHU216HW,2013-05-01 21:21:00,
2013-05-01 17:26:00,59.6,55.7,30.22,NE,45,0.9,2.5,87,0.00,,,0.00,WUHU216HW,2013-05-01 21:26:00,
2013-05-01 17:31:00,59.6,55.7,30.22,ENE,68,1.6,2.5,87,0.00,,,0.00,WUHU216HW,2013-05-01 21:31:00,
2013-05-01 17:36:00,59.4,55.5,30.22,ENE,68,1.1,2.5,87,0.00,,,0.00,WUHU216HW,2013-05-01 21:36:00,
2013-05-01 17:41:00,59.4,55.5,30.22,ESE,113,2.5,2.5,87,0.00,,,0.00,WUHU216HW,2013-05-01 21:41:00,
2013-05-01 17:46:00,59.4,55.5,30.22,ENE,68,2.5,2.9,87,0.00,,,0.00,WUHU216HW,2013-05-01 21:46:00,
2013-05-01 17:51:00,59.4,55.5,30.22,East,90,1.1,3.4,87,0.00,,,0.00,WUHU216HW,2013-05-01 21:51:00,
2013-05-01 17:56:00,59.4,55.5,30.22,ENE,68,1.8,3.4,87,0.00,,,0.00,WUHU216HW,2013-05-01 21:56:00,
2013-05-01 18:01:00,59.4,55.5,30.22,NNE,23,1.1,3.4,87,0.00,,,0.00,WUHU216HW,2013-05-01 22:01:00,
2013-05-01 18:06:00,59.4,55.5,30.22,ENE,68,0.7,3.4,87,0.00,,,0.00,WUHU216HW,2013-05-01 22:06:00,
2013-05-01 18:11:00,59.4,55.5,30.22,ENE,68,3.1,3.1,87,0.00,,,0.00,WUHU216HW,2013-05-01 22:11:00,
2013-05-01 18:16:00,59.4,55.5,30.21,NE,45,1.6,3.1,87,0.00,,,0.00,WUHU216HW,2013-05-01 22:16:00,
2013-05-01 18:21:00,59.4,55.9,30.21,North,0,1.1,1.8,88,0.00,,,0.00,WUHU216HW,2013-05-01 22:21:00,
2013-05-01 18:26:00,59.4,55.9,30.21,NNE,23,0.4,1.6,88,0.00,,,0.00,WUHU216HW,2013-05-01 22:26:00,
2013-05-01 18:31:00,59.4,55.9,30.21,NNE,23,0.4,1.6,88,0.00,,,0.00,WUHU216HW,2013-05-01 22:31:00,
2013-05-01 18:36:00,59.4,55.9,30.21,NNE,23,0.9,1.3,88,0.00,,,0.00,WUHU216HW,2013-05-01 22:36:00,
2013-05-01 18:41:00,59.4,56.2,30.21,NE,45,1.6,2.5,89,0.00,,,0.00,WUHU216HW,2013-05-01 22:41:00,
2013-05-01 18:46:00,59.2,56.0,30.21,NE,45,1.8,2.5,89,0.00,,,0.00,WUHU216HW,2013-05-01 22:46:00,
2013-05-01 18:51:00,59.0,55.8,30.21,ENE,68,1.3,2.0,89,0.00,,,0.00,WUHU216HW,2013-05-01 22:51:00,
2013-05-01 18:56:00,59.0,55.8,30.21,NNE,23,1.1,2.0,89,0.00,,,0.00,WUHU216HW,2013-05-01 22:56:00,
2013-05-01 19:01:00,59.0,55.8,30.21,East,90,3.4,3.4,89,0.00,,,0.00,WUHU216HW,2013-05-01 23:01:00,
2013-05-01 19:06:00,59.0,55.8,30.21,North,0,1.1,3.4,89,0.00,,,0.00,WUHU216HW,2013-05-01 23:06:00,
2013-05-01 19:11:00,59.0,55.8,30.21,ENE,68,1.8,3.4,89,0.00,,,0.00,WUHU216HW,2013-05-01 23:11:00,
2013-05-01 19:16:00,59.0,55.8,30.21,North,0,1.1,2.9,89,0.00,,,0.00,WUHU216HW,2013-05-01 23:16:00,
2013-05-01 19:21:00,59.0,55.8,30.21,ENE,68,1.8,2.5,89,0.00,,,0.00,WUHU216HW,2013-05-01 23:21:00,
2013-05-01 19:26:00,59.0,55.8,30.21,ENE,68,1.3,2.5,89,0.00,,,0.00,WUHU216HW,2013-05-01 23:26:00,
2013-05-01 19:31:00,59.0,55.8,30.21,NE,45,1.1,2.5,89,0.00,,,0.00,WUHU216HW,2013-05-01 23:31:00,
2013-05-01 19:36:00,59.0,55.8,30.21,NE,45,1.1,2.5,89,0.00,,,0.00,WUHU216HW,2013-05-01 23:36:00,
2013-05-01 19:41:00,59.2,55.7,30.21,NNE,23,0.9,2.5,88,0.00,,,0.00,WUHU216HW,2013-05-01 23:41:00,
2013-05-01 19:46:00,59.2,55.7,30.21,NE,45,0.4,2.5,88,0.00,,,0.00,WUHU216HW,2013-05-01 23:46:00,
2013-05-01 19:51:00,59.2,55.7,30.21,ENE,68,1.8,2.5,88,0.00,,,0.00,WUHU216HW,2013-05-01 23:51:00,
2013-05-01 19:56:00,59.2,55.7,30.22,NE,45,0.4,2.0,88,0.00,,,0.00,WUHU216HW,2013-05-01 23:56:00,
2013-05-01 20:01:00,59.2,55.7,30.22,ENE,68,1.3,2.5,88,0.00,,,0.00,WUHU216HW,2013-05-02 00:01:00,
2013-05-01 20:06:00,59.2,55.7,30.22,NE,45,1.8,2.7,88,0.00,,,0.00,WUHU216HW,2013-05-02 00:06:00,
2013-05-01 20:11:00,59.4,55.9,30.22,East,90,2.0,3.4,88,0.00,,,0.00,WUHU216HW,2013-05-02 00:11:00,
2013-05-01 20:16:00,59.4,55.9,30.23,ESE,113,1.8,3.4,88,0.00,,,0.00,WUHU216HW,2013-05-02 00:16:00,
2013-05-01 20:21:00,59.4,55.9,30.23,ESE,113,0.7,2.2,88,0.00,,,0.00,WUHU216HW,2013-05-02 00:21:00,
2013-05-01 20:26:00,59.4,55.9,30.23,NE,45,1.6,2.2,88,0.00,,,0.00,WUHU216HW,2013-05-02 00:26:00,
2013-05-01 20:31:00,59.4,55.9,30.23,ENE,68,1.3,2.5,88,0.00,,,0.00,WUHU216HW,2013-05-02 00:31:00,
2013-05-01 20:36:00,59.4,55.9,30.23,ESE,113,1.8,3.4,88,0.00,,,0.00,WUHU216HW,2013-05-02 00:36:00,
2013-05-01 20:41:00,59.4,55.5,30.23,ENE,68,1.6,3.4,87,0.00,,,0.00,WUHU216HW,2013-05-02 00:41:00,
2013-05-01 20:46:00,59.4,55.5,30.23,ENE,68,0.7,2.9,87,0.00,,,0.00,WUHU216HW,2013-05-02 00:46:00,
2013-05-01 20:51:00,59.4,55.5,30.23,ENE,68,1.6,2.0,87,0.00,,,0.00,WUHU216HW,2013-05-02 00:51:00,
2013-05-01 20:56:00,59.4,55.5,30.23,ENE,68,2.5,2.5,87,0.00,,,0.00,WUHU216HW,2013-05-02 00:56:00,
2013-05-01 21:01:00,59.2,55.4,30.23,ENE,68,1.1,2.7,87,0.00,,,0.00,WUHU216HW,2013-05-02 01:01:00,
2013-05-01 21:06:00,59.2,55.4,30.24,ESE,113,2.0,2.7,87,0.00,,,0.00,WUHU216HW,2013-05-02 01:06:00,
2013-05-01 21:11:00,59.2,55.4,30.24,NE,45,0.7,3.4,87,0.00,,,0.00,WUHU216HW,2013-05-02 01:11:00,
2013-05-01 21:16:00,59.2,55.4,30.24,East,90,0.7,3.4,87,0.00,,,0.00,WUHU216HW,2013-05-02 01:16:00,
2013-05-01 21:21:00,59.2,55.4,30.24,East,90,1.3,3.1,87,0.00,,,0.00,WUHU216HW,2013-05-02 01:21:00,
2013-05-01 21:26:00,59.2,55.4,30.24,ENE,68,1.8,3.1,87,0.00,,,0.00,WUHU216HW,2013-05-02 01:26:00,
2013-05-01 21:31:00,59.2,55.4,30.24,East,90,2.5,2.7,87,0.00,,,0.00,WUHU216HW,2013-05-02 01:31:00,
2013-05-01 21:36:00,59.2,55.4,30.25,ENE,68,1.1,2.5,87,0.00,,,0.00,WUHU216HW,2013-05-02 01:36:00,
2013-05-01 21:41:00,59.2,55.4,30.25,ENE,68,0.9,2.5,87,0.00,,,0.00,WUHU216HW,2013-05-02 01:41:00,
2013-05-01 21:46:00,59.2,55.4,30.25,NNE,23,0.0,2.2,87,0.00,,,0.00,WUHU216HW,2013-05-02 01:46:00,
2013-05-01 21:51:00,59.0,55.2,30.26,ENE,68,1.1,2.2,87,0.00,,,0.00,WUHU216HW,2013-05-02 01:51:00,
2013-05-01 21:56:00,59.0,55.2,30.26,East,90,1.1,1.8,87,0.00,,,0.00,WUHU216HW,2013-05-02 01:56:00,
2013-05-01 22:01:00,59.0,55.2,30.26,NNE,23,0.7,1.8,87,0.00,,,0.00,WUHU216HW,2013-05-02 02:01:00,
2013-05-01 22:06:00,59.0,55.2,30.26,NNE,23,0.9,1.8,87,0.00,,,0.00,WUHU216HW,2013-05-02 02:06:00,
2013-05-01 22:11:00,59.0,55.2,30.26,East,90,1.6,2.2,87,0.00,,,0.00,WUHU216HW,2013-05-02 02:11:00,
2013-05-01 22:16:00,59.0,55.2,30.26,NE,45,0.9,2.2,87,0.00,,,0.00,WUHU216HW,2013-05-02 02:16:00,
2013-05-01 22:21:00,59.0,55.2,30.26,NE,45,1.1,2.5,87,0.00,,,0.00,WUHU216HW,2013-05-02 02:21:00,
2013-05-01 22:26:00,59.0,55.2,30.26,East,90,1.3,2.5,87,0.00,,,0.00,WUHU216HW,2013-05-02 02:26:00,
2013-05-01 22:31:00,59.0,55.2,30.26,ENE,68,1.1,2.5,87,0.00,,,0.00,WUHU216HW,2013-05-02 02:31:00,
2013-05-01 22:36:00,59.0,55.2,30.26,East,90,1.3,2.5,87,0.00,,,0.00,WUHU216HW,2013-05-02 02:36:00,
2013-05-01 22:41:00,58.9,55.0,30.26,East,90,1.6,1.8,87,0.00,,,0.00,WUHU216HW,2013-05-02 02:41:00,
2013-05-01 22:46:00,58.9,55.0,30.26,ENE,68,1.1,2.7,87,0.00,,,0.00,WUHU216HW,2013-05-02 02:46:00,
2013-05-01 22:51:00,58.9,55.0,30.26,ENE,68,1.1,2.7,87,0.00,,,0.00,WUHU216HW,2013-05-02 02:51:00,
2013-05-01 22:56:00,58.9,55.0,30.26,ESE,113,0.4,2.0,87,0.00,,,0.00,WUHU216HW,2013-05-02 02:56:00,
2013-05-01 23:01:00,58.9,55.0,30.26,ENE,68,1.8,2.0,87,0.00,,,0.00,WUHU216HW,2013-05-02 03:01:00,
2013-05-01 23:06:00,58.7,54.8,30.26,NNE,23,1.6,2.5,87,0.00,,,0.00,WUHU216HW,2013-05-02 03:06:00,
2013-05-01 23:11:00,58.7,54.8,30.26,East,90,0.2,2.5,87,0.00,,,0.00,WUHU216HW,2013-05-02 03:11:00,
2013-05-01 23:16:00,58.7,54.8,30.26,ENE,68,1.1,2.5,87,0.00,,,0.00,WUHU216HW,2013-05-02 03:16:00,
2013-05-01 23:21:00,58.7,54.8,30.26,ESE,113,0.7,2.5,87,0.00,,,0.00,WUHU216HW,2013-05-02 03:21:00,
2013-05-01 23:26:00,58.7,54.8,30.26,NE,45,0.9,1.6,87,0.00,,,0.00,WUHU216HW,2013-05-02 03:26:00,
2013-05-01 23:31:00,58.7,54.8,30.26,SE,135,0.9,2.2,87,0.00,,,0.00,WUHU216HW,2013-05-02 03:31:00,
2013-05-01 23:36:00,58.7,55.2,30.26,NE,45,1.1,2.2,88,0.00,,,0.00,WUHU216HW,2013-05-02 03:36:00,
2013-05-01 23:41:00,58.7,55.2,30.26,ENE,68,1.1,1.8,88,0.00,,,0.00,WUHU216HW,2013-05-02 03:41:00,
2013-05-01 23:46:00,58.7,55.2,30.26,East,90,0.7,1.8,88,0.00,,,0.00,WUHU216HW,2013-05-02 03:46:00,
2013-05-01 23:51:00,58.5,55.0,30.26,ESE,113,2.5,2.5,88,0.00,,,0.00,WUHU216HW,2013-05-02 03:51:00,
2013-05-01 23:56:00,58.5,55.0,30.26,ESE,113,0.9,2.5,88,0.00,,,0.00,WUHU216HW,2013-05-02 03:56:00,